sat.trackr.live / text

‹ back to catalog

STARLINK-32089

NORAD 59687 · 2024-086F

PAYLOAD ACTIVE UNKNOWN

§ Identity

Operator
Country
US
Launch date
2024-05-08
Launch site
AFETR
Launch vehicle
Mass (kg)
RCS (m²)

Purposes: comms

External: N2YO · Heavens-Above · Gunter

§ Orbital elements

Epoch: 2026-09-21T15:34:00.682464Z

Period
94.27 min
Inclination
43.0017°
Eccentricity
0.0001332
Mean motion
15.27575990 rev/d
Perigee alt
482.1 km
Apogee alt
484.0 km
Semi-major
6,861.2 km
B*
1.4838e-5
RAAN
33.0430°
Arg perigee
271.5810°
Mean anomaly
88.4889°
Rev number
13,408

§ Raw data

STARLINK-320891 59687U 24086F   26264.64861901  .00000146  00000+0  14838-4 0  99982 59687  43.0017  33.0430 0001332 271.5810  88.4889 15.27575990134089

JSON: /api/v1/satellites/59687 · /tle

For live sub-satellite position, see the globe view (requires WebGL).

§ Visibility from observer

Set your observer location to see the next 7 days of passes ≥ 10°. The values pass through the URL so the page stays shareable.

No JS? Fill the form by hand. The geolocation button needs JavaScript.